Bullhead City, AZ

10:25 PM MST on December 14, 2017 (GMT -0700)
Laughlin-Bullhead International

Weather History for KIFP - June, 2013

Change the Weather History Date:

Monday, June 24, 2013

  Actual Average Record
Temperature  
Mean Temperature 88 °F -  
Max Temperature 98 °F 104 °F 118 °F (2017)
Min Temperature 77 °F 81 °F 66 °F (1991)
Cooling Degree Days 22    
Growing Degree Days 38 (Base 50)    
Moisture  
Dew Point 36 °F    
Average Humidity 16    
Maximum Humidity 29    
Minimum Humidity 9    
Precipitation  
Precipitation 0.01 in - - ()
Sea Level Pressure  
Sea Level Pressure 29.68 in    
Wind  
Wind Speed 10 mph (South)    
Max Wind Speed 28 mph    
Max Gust Speed 36 mph    
Visibility 10 miles    
Events      
Averages and records for this station are not official NWS values.
T = Trace of Precipitation, MM = Missing Value Source: NWS Daily Summary

Daily Weather History Graph

Daily Weather History Graph

Search for Another Location

Airport or City:

Trip Planner

Search our weather history database for the weather conditions in past years. The results will help you decide how hot, cold, wet, or windy it might be!

Date:

Astronomy

Jun. 24, 2013 Rise Set
Actual Time 5:25 AM MST 7:56 PM MST
Civil Twilight 4:55 AM MST 8:26 PM MST
Nautical Twilight 4:18 AM MST 9:03 PM MST
Astronomical Twilight 3:37 AM MST 9:43 PM MST
Moon 9:07 PM MST (6/24) 6:53 AM MST (6/24)
Length of Visible Light 15h 31m
Length of Day
14h 31m
Full, 97% of the Moon is Illuminated
Jun 24
Full
Jun 29
Last Quarter
Jul 8
New
Jul 15
First Quarter
Jul 22
Full

Hourly Weather History & Observations

Time (MST) Temp. Dew Point Humidity Pressure Visibility Wind Dir Wind Speed Gust Speed Precip Events Conditions
12:15 AM 89.6 °F 33.8 °F 14% 29.60 in 10.0 mi Calm Calm - N/A   Clear
12:35 AM 87.8 °F 35.6 °F 16% 29.60 in 10.0 mi South 6.9 mph - N/A   Clear
12:55 AM 86.0 °F 35.6 °F 17% 29.60 in 10.0 mi SSE 8.1 mph - N/A   Clear
1:15 AM 86.0 °F 37.4 °F 18% 29.59 in 10.0 mi SSE 11.5 mph - N/A   Clear
1:35 AM 86.0 °F 37.4 °F 18% 29.60 in 10.0 mi South 10.4 mph - N/A   Clear
1:55 AM 86.0 °F 37.4 °F 18% 29.61 in 10.0 mi NNW 3.5 mph - N/A   Clear
2:15 AM 84.2 °F 37.4 °F 19% 29.62 in 10.0 mi SSE 4.6 mph - N/A   Clear
2:35 AM 84.2 °F 37.4 °F 19% 29.62 in 10.0 mi South 5.8 mph - N/A   Clear
2:55 AM 82.4 °F 39.2 °F 21% 29.62 in 10.0 mi SSW 5.8 mph - N/A   Clear
3:15 AM 84.2 °F 37.4 °F 19% 29.62 in 10.0 mi SSE 13.8 mph - N/A   Clear
3:35 AM 84.2 °F 37.4 °F 19% 29.62 in 10.0 mi SSE 12.7 mph - N/A   Clear
3:55 AM 84.2 °F 37.4 °F 19% 29.63 in 10.0 mi SW 6.9 mph - N/A   Clear
4:15 AM 80.6 °F 39.2 °F 23% 29.63 in 10.0 mi SSW 6.9 mph - N/A   Clear
4:35 AM 80.6 °F 39.2 °F 23% 29.64 in 10.0 mi SSW 5.8 mph - N/A   Clear
4:55 AM 80.6 °F 39.2 °F 23% 29.65 in 10.0 mi SW 6.9 mph - N/A   Clear
5:15 AM 80.6 °F 41.0 °F 24% 29.66 in 10.0 mi SSW 9.2 mph - N/A   Clear
5:35 AM 77.0 °F 42.8 °F 29% 29.67 in 10.0 mi SSW 6.9 mph - N/A   Clear
5:55 AM 77.0 °F 42.8 °F 29% 29.68 in 10.0 mi SSW 4.6 mph - N/A   Clear
6:15 AM 77.0 °F 42.8 °F 29% 29.68 in 10.0 mi SSW 4.6 mph - N/A   Clear
6:35 AM 80.6 °F 41.0 °F 24% 29.69 in 10.0 mi SSW 5.8 mph - N/A   Clear
6:55 AM 82.4 °F 41.0 °F 23% 29.69 in 10.0 mi SSW 10.4 mph - N/A   Clear
7:15 AM 82.4 °F 41.0 °F 23% 29.70 in 10.0 mi SW 8.1 mph - N/A   Clear
7:35 AM - - N/A% - - North - - N/A   Unknown
7:55 AM - - N/A% - - North - - N/A   Unknown
8:15 AM - - N/A% 29.72 in - SW 6.9 mph - N/A   Unknown
8:35 AM 84.2 °F 41.0 °F 22% 29.74 in 10.0 mi South 6.9 mph - N/A   Unknown
8:55 AM 86.0 °F 41.0 °F 20% 29.73 in 10.0 mi SSE 16.1 mph 20.7 mph 0.01 in   Clear
9:15 AM 87.8 °F 41.0 °F 19% 29.74 in 10.0 mi South 13.8 mph - N/A   Clear
9:35 AM 87.8 °F 41.0 °F 19% 29.73 in 10.0 mi SSE 12.7 mph 20.7 mph N/A   Clear
9:55 AM 89.6 °F 41.0 °F 18% 29.74 in 10.0 mi South 12.7 mph 23.0 mph N/A   Clear
10:15 AM 89.6 °F 39.2 °F 17% 29.74 in 10.0 mi South 13.8 mph 24.2 mph N/A   Clear
10:35 AM 89.6 °F 39.2 °F 17% 29.74 in 10.0 mi South 16.1 mph 24.2 mph N/A   Clear
10:55 AM 91.4 °F 39.2 °F 16% 29.74 in 10.0 mi South 11.5 mph 21.9 mph N/A   Clear
11:15 AM 91.4 °F 39.2 °F 16% 29.73 in 10.0 mi South 19.6 mph 25.3 mph N/A   Clear
11:35 AM 91.4 °F 39.2 °F 16% 29.73 in 10.0 mi South 16.1 mph 24.2 mph N/A   Clear
11:55 AM 93.2 °F 37.4 °F 14% 29.73 in 10.0 mi SSW 11.5 mph 21.9 mph N/A   Clear
12:15 PM 93.2 °F 37.4 °F 14% 29.72 in 10.0 mi SSW 12.7 mph 24.2 mph N/A   Clear
12:35 PM 93.2 °F 37.4 °F 14% 29.72 in 10.0 mi South 12.7 mph 29.9 mph N/A   Clear
12:55 PM 93.2 °F 37.4 °F 14% 29.70 in 10.0 mi South 21.9 mph 29.9 mph N/A   Clear
1:15 PM 95.0 °F 37.4 °F 13% 29.70 in 10.0 mi South 20.7 mph 35.7 mph N/A   Clear
1:35 PM 95.0 °F 35.6 °F 12% 29.70 in 10.0 mi South 17.3 mph 26.5 mph N/A   Clear
1:55 PM 95.0 °F 37.4 °F 13% 29.69 in 10.0 mi South 16.1 mph 27.6 mph N/A   Clear
2:15 PM 96.8 °F 35.6 °F 12% 29.69 in 10.0 mi South 15.0 mph 29.9 mph N/A   Partly Cloudy
2:35 PM 96.8 °F 35.6 °F 12% 29.68 in 10.0 mi South 20.7 mph 34.5 mph N/A   Clear
2:55 PM 96.8 °F 33.8 °F 11% 29.68 in 10.0 mi South 27.6 mph 32.2 mph N/A   Clear
3:15 PM 95.0 °F 33.8 °F 12% 29.68 in 10.0 mi South 18.4 mph 29.9 mph N/A   Clear
3:35 PM 95.0 °F 32.0 °F 11% 29.68 in 10.0 mi South 18.4 mph 26.5 mph N/A   Clear
3:55 PM 96.8 °F 32.0 °F 10% 29.68 in 10.0 mi South 20.7 mph 25.3 mph N/A   Clear
4:15 PM 98.6 °F 33.8 °F 10% 29.68 in 10.0 mi SSW 16.1 mph 21.9 mph N/A   Clear
4:35 PM 98.6 °F 35.6 °F 11% 29.67 in 10.0 mi SW 17.3 mph 23.0 mph N/A   Clear
4:55 PM 98.6 °F 35.6 °F 11% 29.68 in 10.0 mi South 13.8 mph 21.9 mph N/A   Clear
5:15 PM 98.6 °F 35.6 °F 11% 29.67 in 10.0 mi SW 16.1 mph 24.2 mph N/A   Clear
5:35 PM 98.6 °F 35.6 °F 11% 29.66 in 10.0 mi SW 12.7 mph 19.6 mph N/A   Clear
5:55 PM 96.8 °F 35.6 °F 12% 29.66 in 10.0 mi South 10.4 mph - N/A   Clear
6:15 PM 96.8 °F 33.8 °F 11% 29.66 in 10.0 mi South 12.7 mph - N/A   Clear
6:35 PM 96.8 °F 28.4 °F 9% 29.66 in 10.0 mi SSW 13.8 mph - N/A   Clear
6:55 PM 98.6 °F 30.2 °F 9% 29.66 in 10.0 mi South 15.0 mph 23.0 mph N/A   Clear
7:15 PM 96.8 °F 30.2 °F 10% 29.66 in 10.0 mi South 18.4 mph - N/A   Clear
7:55 PM 95.0 °F 30.2 °F 10% 29.66 in 10.0 mi SSE 21.9 mph - N/A   Clear
8:15 PM 95.0 °F 32.0 °F 11% 29.66 in 10.0 mi SSE 23.0 mph 28.8 mph N/A   Clear
8:35 PM 93.2 °F 32.0 °F 11% 29.68 in 10.0 mi SSE 18.4 mph - N/A   Clear
8:55 PM 93.2 °F 32.0 °F 11% 29.68 in 10.0 mi SSE 20.7 mph - N/A   Clear
9:15 PM 93.2 °F 30.2 °F 11% 29.68 in 10.0 mi SSE 18.4 mph 25.3 mph N/A   Clear
9:35 PM 91.4 °F 30.2 °F 11% 29.70 in 10.0 mi SSE 19.6 mph 25.3 mph N/A   Clear
9:55 PM 91.4 °F 28.4 °F 10% 29.71 in 10.0 mi SSE 17.3 mph - N/A   Clear
10:15 PM 91.4 °F 32.0 °F 12% 29.71 in 10.0 mi SSE 17.3 mph - N/A   Clear
10:35 PM 91.4 °F 32.0 °F 12% 29.72 in 10.0 mi SSE 16.1 mph - N/A   Clear
10:55 PM 89.6 °F 32.0 °F 13% 29.72 in 10.0 mi SSE 16.1 mph - N/A   Clear
11:15 PM 89.6 °F 32.0 °F 13% 29.72 in 10.0 mi SSE 18.4 mph 23.0 mph N/A   Clear
11:35 PM 89.6 °F 32.0 °F 13% 29.73 in 10.0 mi SSE 16.1 mph - N/A   Clear
11:55 PM 89.6 °F 33.8 °F 14% 29.73 in 10.0 mi SSE 15.0 mph - N/A   Clear